www.pogodaiklimat.ru

Погода и климат >> Архив погоды >> Россия >> Томская область >> Тегульдет


ПОГОДА в Тегульдете

  • Прогноз погоды в Тегульдете
  • Монитор погоды в Тегульдете

АРХИВ ПОГОДЫ в Тегульдете

Время (UTC), дата Ветер
(напр.,м/с)
 
Видим.   Явления Облачность Т
(С)
Тd
(С)
f
(%)
Тe
(С)
Тes
(С)
Комфортность P
(гПа)
Po
(гПа)
Тmin
(С)
Tmax
(С)
R
(мм)
R24
(мм)
S
(см)
21 17.05 ЮВ 1 10 км 7 баллов +1.5 -6.1 57 0 0 1019.3 1002.7
00 18.05 Ю 2 10 км 10/0
[Ac und]
+5.1 -6.9 42 +3 +4 1018.7 1002.0 +0.2
03 18.05 ЮЗ 3 10 км 10 баллов +10.2 -5.8 32 +9 +9 1018.8 1002.7
06 18.05 Ю 4
{11}
10 км 10/10 600 м
[Sc]
+12.2 -5.3 29 +11 +11 1018.6 1002.7
09 18.05 Ю 4 10 км 10 баллов +11.6 -3.7 34 +10 +10 1015.9 1000.0
12 18.05 Ю 4
{11}
10 км 10/10 600 м
[Sc]
+12.7 -4.5 30 +11 +11 1013.5 997.4 +13.1
15 18.05 Ю 2 10 км 10 баллов +10.8 +0.2 48 +10 +10 1013.2 997.3
18 18.05 ЮВ 3 10 км 10/0
[As op]
+10.1 -0.7 47 +8 +8 1011.9 996.0
21 18.05 ЮВ 2 10 км 10 баллов +10.1 -4.7 35 +9 +9 1010.6 994.7
00 19.05 ЮВ 3 10 км 10/0
[As op]
+11.3 -5.0 32 +10 +10 1008.2 992.0 +9.6
03 19.05 ЮВ 5 10 км 7 баллов +18.6 -5.5 19 +18 +20 1004.7 989.3
06 19.05 Ю 4
{13}
10 км 9/0
[Ci sp]
+22.3 -5.6 15 +21 +22 комфорт 1008.5 993.3
09 19.05 ЮЗ 4 10 км 10 баллов +23.6 -5.5 14 +22 +22 комфорт 1001.8 986.7
12 19.05 З 3
{13}
10 км 10/10 600 м
[Sc]
+21.8 -3.0 19 +21 +21 комфорт 1005.0 989.5 +23.9
15 19.05 З 3 10 км 10 баллов +14.7 +4.7 51 +14 +14 1004.9 989.3
18 19.05 З 3 10 км {ливн. осадки} 8/8 600 м
[Sc]
+10.9 +7.0 77 +9 +9 1006.5 990.7
21 19.05 З 1 10 км ясно +5.8 +3.6 86 +5 +5 1006.8 990.7
00 20.05 Ю 1 10 км ясно +7.5 +5.4 87 +7 +9 1008.6 992.2 +2.4 0.4
03 20.05 Ю 2 10 км ясно +13.1 +1.7 46 +13 +22 1006.4 990.7
06 20.05 ЮЗ 4 10 км 3/3 1000 м
[Cu hum]
+18.6 -1.3 26 +19 +26 1003.4 988.0
09 20.05 ЮЗ 3 10 км 9 баллов +19.1 -1.9 24 +19 +20 1002.0 986.7
12 20.05 ЮЗ 4
{13}
10 км {ливн. осадки} 8/6 600 м
[Sc Ci fib]
+19.2 +1.1 30 +19 +20 1001.0 985.4 +20.7 0.0
15 20.05 З 3 10 км 5 баллов +14.4 -7.0 22 +14 +14 1013.0 997.3
18 20.05 Ю 1 10 км 2 балла +8.6 -2.7 45 +9 +9 1002.6 986.7
21 20.05 Ю 1 10 км 7 баллов +6.7 -2.5 52 +6 +6 1002.7 986.7
00 21.05 ЮЗ 1 10 км 10/0
[Ac und]
+8.3 +3.8 73 +8 +8 997.9 981.8 +3.8
03 21.05 ЮЗ 2 10 км 10 баллов +9.8 +4.0 67 +8 +8 999.8 984.0
06 21.05 Ю 3 10 км 7 баллов +10.5 +2.6 58 +9 +12 999.7 984.0
09 21.05 СЗ 3 10 км слаб. ливневой дождь 10 баллов +12.5 +0.6 44 +11 +11 999.6 984.0
12 21.05 Ю 2 10 км {ливн. осадки} 8/8 600 м
[Sc]
+12.9 +3.1 51 +12 +13 999.7 983.8 +14.5 0.0
15 21.05 Ю 1 10 км 9 баллов +9.7 +1.6 57 +10 +10 1001.1 985.3
18 21.05 Ю 2 10 км 10 баллов +8.0 +3.7 74 +6 +6 1001.2 985.3
21 21.05 ЮЗ 3 10 км 10 баллов +6.8 +4.3 84 +4 +4 999.9 984.0
00 22.05 З 2 4000 м слаб. ливневой дождь 10/10 300 м
[Cb cap]
+6.1 +4.6 90 +4 +4 1000.7 984.5 +5.9 2
03 22.05 З 3 10 км 10 баллов +8.8 +5.2 78 +6 +6 1003.9 988.0
06 22.05 З 3
{12}
10 км в посл. час ливневой дождь 8/6 600 м
[Cu Sc Ci fib]
+10.6 +4.3 65 +9 +13 1004.0 987.9
09 22.05 ЮЗ 2 10 км 7 баллов +10.0 +4.2 67 +9 +12 1005.1 989.3
12 22.05 ЮЗ 3 10 км {ливн. осадки} 6/4 600 м
[Sc Ci fib]
+11.1 +1.4 51 +10 +11 1003.9 987.8 +12.2 1
15 22.05 Ю 1 10 км 1 балл +5.3 +2.5 82 +4 +4 1005.4 989.3
18 22.05 ЮЗ 2 10 км 4 балла +4.5 +2.8 89 +2 +2 1005.4 989.3
21 22.05 ЮЗ 1 10 км 4 балла +3.6 +2.3 91 +2 +2 1008.2 992.0
00 23.05 З 2 10 км 10/0
[Ac und]
+4.8 +3.1 89 +2 +3 1007.5 991.0 +3.2
03 23.05 З 3 10 км 9 баллов +9.7 +0.3 52 +8 +9 1009.2 993.3
06 23.05 ЮЗ 2 10 км в посл. час ливневой дождь 9 баллов +8.3 +3.2 70 +7 +8 1009.3 993.3
09 23.05 З 4 10 км 7 баллов +11.9 -4.3 32 +10 +12 1009.1 993.3
12 23.05 СЗ 2 10 км 8/8 600 м
[Cu Sc]
+12.5 -4.3 31 +12 +13 1010.2 994.1 +12.9 2
15 23.05 штиль 0 10 км ясно +4.4 -0.6 70 +4 +4 1012.3 996.0
18 23.05 штиль 0 10 км ясно +0.4 -1.0 90 -1 -1 1015.3 998.7
21 23.05 Ю 1 10 км ясно -1.2 -2.0 94 -3 -3 1015.4 998.7
00 24.05 штиль 0 10 км 9/9 600 м
[Sc]
+5.4 +1.1 74 +5 +5 1014.3 997.7 -1.4
03 24.05 ЮЗ 3 10 км 10 баллов +11.2 +0.3 47 +10 +10 1017.3 1001.3
06 24.05 ЮЗ 4
{11}
10 км в посл. час ливневой дождь 8/8 600 м
[Sc]
+13.4 -0.9 37 +12 +14 1015.3 999.2
09 24.05 З 3 4000 м слаб. ливневой дождь 10 баллов +13.1 -0.2 40 +12 +12 1014.5 998.7
12 24.05 Ю 4 10 км {ливн. осадки} 8/8 600 м
[Cu med, cong]
+14.0 +1.9 44 +13 +13 1013.8 997.8 +15.8 0.0
15 24.05 Ю 2 10 км 10 баллов +10.2 +1.8 56 +9 +9 1014.7 998.7

 

Местоположение метеостанции Тегульдет (Томская область, Россия): широта 57.30 долгота 88.15 высота над уровнем моря 132 м.

В архиве по умолчанию представлена погода в Тегульдете за последнюю неделю. Архивные данные за месяц целиком и за предыдущие месяцы, начиная с января 2011 года, Вы можете получить, выбрав интересующий диапазон дат из раскрывающегося списка и нажав кнопку "Ввод!".


*Определитесь, кто Вы:
робот инопланетянин человек

Внимание! Время в таблицах - всемирное. Для получения местного времени необходимо прибавить поправку, которая равна 7 ч.

Смотрите также архив погоды в соседних городах и на ближайших метеорологических станциях:

Погода в Тюхтете (Красноярский край, Россия) (111 км)
Погода в Первомайском (Томская область, Россия) (119 км)
Погода в Мариинске (Кемеровская область, Россия) (128 км)
Погода в Тяжине (Кемеровская область, Россия) (133 км)
Погода в Лосиноборске (Красноярский край, Россия) (145 км)
Погода в Новобирилюссах (Красноярский край, Россия) (145 км)
Погода в Боготоле (Красноярский край, Россия) (148 км)
Погода в Яе (Кемеровская область, Россия) (160 км)
Погода в Большом Улуе (Красноярский край, Россия) (162 км)
Погода в Степановке (Томская область, Россия) (170 км)

Пояснения к столбцам:

Ветер - указаны скорость ветра в м/с - средняя за 10 мин, порывы в срок и между сроками (в фигурных скобках) и направление, откуда дует ветер: С - северный, СВ - северо-восточный, В - восточный, ЮВ - юго-восточный, Ю - южный, ЮЗ - юго-западный, З - западный, СЗ - северо-западный.
Видимость - горизонтальная дальность видимости в метрах или километрах. При видимости от 1 до 10 км при отсутствии осадков обычно наблюдается дымка, при ухудшении видимости до 1 км и менее - туман. В сухую погоду видимость может ухудшаться дымом, пылью или мглою.
Явления - указаны атмосферные явления, наблюдавшиеся в срок или в последний час перед сроком; фигурными скобками обозначены явления, наблюдавшиеся между сроками (за 1-3 часа до срока); квадратными скобками обозначены град или гололедные отложения с указанием их диаметра в мм.
Облачность - указаны через наклонную черту общая и нижняя облачность в баллах и высота нижней границы облаков в метрах; квадратными скобками обозначены формы облаков: Ci - перистые, Cs - перисто-слоистые, Cc - перисто-кучевые, Ac - высококучевые, As - высокослоистые, Sc - слоисто-кучевые, Ns - слоисто-дождевые, Cu - кучевые, Cb - кучево-дождевые. Подробнее классификацию облаков см. в Атласе облаков (PDF).
T - Температура воздуха - температура, измеренная на высоте 2 м над землей.
Td - Температура точки росы - температура, при понижении до которой содержащийся в воздухе водяной пар достигнет насыщения.
f - Относительная влажность воздуха - влажноcть воздуха, измеренная на высоте 2 м над землей.
Te - Эффективная температура - температура, которую ощущает одетый по сезону человек в тени. Характеристика душности погоды. При расчете учитывается влияние влажности воздуха и скорости ветра на теплоощущения человека.
Tes - Эффективная температура на солнце - температура, которую ощущает человек, с поправкой на солнечный нагрев. Характеристика знойности погоды. Зависит от высоты солнца над горизонтом, облачности и скорости ветра. Ночью, в пасмурную погоду, а также при ветре 12 м/с и более поправка равна нулю.
P - Атмосферное давление - приведенное к уровню моря атмосферное давление.
Po - Атмосферное давление - измеренное на уровне метеостанции атмосферное давление.
Tmin - Минимальная температура - минимум температуры воздуха на высоте 2 м над землей.
Tmax - Максимальная температура - максимум температуры воздуха на высоте 2 м над землей.
R - Количество осадков - Количество выпавших осадков за период времени, мм. При наведении курсора мыши на число - период времени, за который выпало указанное количество осадков.
R24 - Количество осадков - Количество выпавших осадков за 24 часа, мм.
S - Снежный покров - Высота снежного покрова, см. При наведении курсора мыши на число - состояние снежного покрова и степень покрытия местности в баллах.